Location: Mission Viejo or La Paz
(33.5292°N, 117.5734°W)
Time: 02:15:35
(UTC+00:00)

Daily predictions for brighter satellites

Satellite Brightness Start Highest point End
(mag) Time Altitude Azimuth Time Altitude Azimuth Time Altitude Azimuth
Resurs 1-3 3.6 03:11:19 10° SSE 03:15:38 84° ENE 03:20:00 10° N
Intercosmos 24 4.5 03:13:54 10° SSW 03:17:32 66° W 03:22:16 10° N
Cosmos 1680 Rocket 3.6 03:12:17 10° SSW 03:17:33 87° WNW 03:22:51 10° NNE
Cosmos 921 Rocket 3.3 03:23:58 10° S 03:28:15 49° E 03:32:35 10° NNE
USA 186 1.9 03:25:39 10° SSE 03:28:43 53° ENE 03:31:52 10° N
CARTOSAT-1 4.1 03:27:54 10° SE 03:31:52 40° ENE 03:35:52 10° N
Cosmos 2344 4.5 03:24:25 10° NNW 03:33:30 67° ENE 03:46:19 10° SE
Cosmos 1072 Rocket 4.4 03:28:22 10° N 03:34:30 78° E 03:40:35 10° S
Cosmos 1743 4.5 03:35:43 10° NE 03:37:51 15° ENE 03:39:25 12° ESE
CZ-4C R/B 4.4 03:35:40 10° NE 03:38:58 25° E 03:42:20 10° SSE
CZ-4B R/B 3.1 03:37:17 10° SSE 03:42:38 82° ENE 03:47:57 10° N
Cosmos 2278 Rocket 4.2 03:39:45 10° NW 03:44:19 26° WSW 03:48:52 10° SSW
Lacrosse 5 1.9 03:41:37 10° NW 03:46:44 85° SW 03:51:09 14° SE
Cosmos 2056 Rocket 3.9 03:41:34 10° N 03:46:45 49° ENE 03:51:03 14° SE
Cosmos 1624 Rocket 4.4 03:42:17 10° N 03:47:17 48° ENE 03:51:28 14° SE
SJ-6B 4.3 03:44:00 10° SSW 03:47:26 34° W 03:50:49 10° NNW
Okean-O 3.6 03:49:20 16° SE 03:52:12 31° ENE 03:56:05 10° N
Feng Yun 1-1 Rocket 4.4 03:47:47 10° SSE 03:53:42 90° ENE 03:59:38 10° NNW
Cosmos 494 Rocket 3.8 03:51:37 10° S 03:56:41 76° ESE 04:01:47 10° NNE
Cosmos 1378 4.3 03:54:34 10° SSW 03:57:38 38° W 04:00:43 10° N
Cosmos 2297 4.0 03:53:37 10° N 03:59:14 54° ENE 04:03:16 19° SE
Hubble Space Telescope 2.0 03:57:01 10° SSW 04:00:03 21° SSE 04:00:43 20° SSE
ATLAS 3B R/B 3.0 03:52:27 10° NNW 04:00:22 89° SW 04:06:55 15° SSE
USA 276 3.6 03:59:42 10° N 04:01:03 15° NE 04:01:43 13° NE
Cosmos 1464 Rocket 4.4 03:57:27 10° NNW 04:03:38 65° W 04:09:42 10° S
SPOT 5 3.8 04:03:28 20° ESE 04:05:33 28° ENE 04:09:20 10° NNE
PSLV R/B 3.7 04:05:53 15° S 04:08:58 76° WSW 04:12:40 10° NNW
Cosmos 2084 3.1 04:05:21 10° NNW 04:09:06 71° ENE 04:10:59 28° SE
CSL-04 Rocket 3.8 04:04:06 10° S 04:09:24 74° WSW 04:14:40 10° NNW
MOS 1-B Rocket 4.4 04:01:54 10° SSE 04:09:50 80° ENE 04:16:34 10° N
Cosmos 44 3.1 04:09:05 10° NNW 04:13:45 77° WSW 04:16:28 23° SSE
Cosmos 1048 Rocket 3.9 04:09:24 10° SSW 04:14:32 80° ESE 04:19:40 10° NNE
OAO 2 Rocket 4.2 04:11:17 10° W 04:16:11 39° SSW 04:18:44 24° SSE
ISS -1.2 04:14:49 10° N 04:16:36 14° NNE 04:18:16 10° ENE
Cosmos 1603 3.7 04:12:50 10° S 04:18:20 57° ESE 04:23:54 10° NNE
FALCON 9 R/B 2.8 04:20:28 10° W 04:24:51 87° NNE 04:39:32 10° E
Cosmos 1656 Rocket 3.6 04:21:28 10° NNW 04:26:59 87° WSW 04:30:15 26° SSE
Cosmos 2369 Rocket 2.1 04:23:15 10° NNW 04:28:51 73° ENE 04:31:39 30° SSE
Cosmos 1842 Rocket 3.5 04:26:57 24° S 04:29:36 74° E 04:34:02 10° N
Cosmos 2263 4.5 04:25:07 10° N 04:30:43 54° ENE 04:33:11 32° SE
SeaSat 1 3.6 04:27:42 13° S 04:31:35 38° WSW 04:36:09 10° NW
Resurs 01 Rocket 3.2 04:30:08 10° SSW 04:34:03 31° W 04:37:59 10° NW
Meteor 2-6 Rocket 4.4 04:29:05 10° SSW 04:34:42 73° W 04:40:11 10° N
CZ-4 R/B 4.3 04:34:58 10° WSW 04:35:34 10° W 04:36:10 10° W
Cosmos 1634 Rocket 3.9 04:30:36 10° N 04:36:51 77° E 04:40:24 27° SSE
Meteor 1-14 Rocket 4.3 04:32:33 10° N 04:38:29 75° E 04:41:29 31° SSE
Aureole 3 Rocket 4.0 04:34:07 10° NNW 04:38:55 68° W 04:44:20 16° S
Okean 3 Rocket 3.7 04:34:40 10° N 04:38:57 55° E 04:39:50 46° SE
MOS 1 4.2 04:37:46 27° SSE 04:41:01 87° WSW 04:46:43 10° NNW
Okean O Rocket 3.3 04:39:52 11° SSW 04:43:38 29° W 04:47:31 10° NW
ARGOS Delta rocket 4.1 04:44:50 42° SE 04:46:09 54° ENE 04:50:52 10° N
Spot 2 Rocket 4.2 04:45:44 34° E 04:46:38 37° ENE 04:51:14 10° N
IRS-1C Rocket 4.0 04:46:13 39° SSE 04:48:11 76° ENE 04:53:27 10° N
Cosmos 1943 4.4 04:46:39 10° SW 04:52:00 42° WNW 04:57:23 10° N
Cosmos 1340 Rocket 3.8 04:59:03 34° NE 04:59:03 34° NE 05:01:46 10° NNE
SPOT 3 Rocket 4.0 04:59:09 41° E 04:59:48 43° ENE 05:04:38 10° N
IRS-1A Rocket 4.2 04:59:02 42° SSE 05:01:03 88° WSW 05:06:39 10° NNW
Cosmos 1818 4.4 05:03:20 34° E 05:03:20 34° E 05:07:06 10° NE
Ariane Rocket 3.0 05:09:01 58° ESE 05:09:31 61° ENE 05:14:32 10° N
USA 229 DEB 4.1 05:02:23 10° NNW 05:10:07 77° WSW 05:13:29 39° SSE
USA 229 4.1 05:02:29 10° NNW 05:10:14 78° WSW 05:13:35 40° SSE
Terra 1.6 05:13:06 76° SE 05:13:24 82° ENE 05:18:08 10° N
Meteor 1-27 Rocket 3.5 05:12:41 54° S 05:14:01 85° E 05:19:34 10° N
NOSS 3-3 (A) 4.1 05:17:20 43° ENE 05:17:20 43° ENE 05:21:44 10° NE
Cosmos 1743 Rocket 4.4 05:12:57 10° N 05:16:20 39° NE 05:16:20 39° NE
Cosmos 2180 Rocket 4.3 05:11:03 10° N 05:17:12 76° E 05:18:28 57° SSE
MOS 1 Rocket 3.5 05:17:55 62° E 05:18:10 63° ENE 05:23:23 10° N
USA 59 Rocket 2.3 05:15:48 10° N 05:18:56 18° NE 05:19:17 18° ENE
Meteor 2-9 Rocket 4.3 05:13:13 10° N 05:19:02 63° E 05:19:40 59° ESE
Cosmos 2142 Rocket 4.5 05:14:25 10° N 05:20:49 84° W 05:22:41 49° S
Meteor 2-4 Rocket 4.4 05:21:25 39° E 05:21:25 39° E 05:26:25 10° NNE
USA 306 4.1 05:22:22 10° NNW 05:25:12 31° NNE 05:25:12 31° NNE
Cosmos 1408 Rocket 3.7 05:22:12 10° N 05:26:25 70° WNW 05:26:25 70° WNW
GEOS 3 Rocket 3.5 05:21:46 10° NNE 05:26:55 82° NW 05:28:30 46° SW
DELTA 2 R/B (1) 3.4 05:22:10 10° WSW 05:27:44 79° SSE 05:27:44 79° SSE
Okean 1 4.4 05:29:05 39° WNW 05:29:05 39° WNW 05:32:39 10° N
Chandra Rocket (1) 4.0 05:01:54 10° W 05:30:10 69° S 05:33:07 45° ESE
Cosmos 1452 Rocket 3.7 05:27:18 10° NNW 05:32:27 59° WSW 05:32:54 57° SW
ERS-1 Rocket 3.4 05:32:05 49° SW 05:32:43 52° W 05:37:37 10° NNW
Cosmos 1726 4.4 05:35:02 10° NW 05:36:25 18° WNW 05:36:25 18° WNW
USA 281 3.4 05:37:49 50° E 05:38:48 54° ENE 05:45:11 10° NNW
Cosmos 1151 Rocket 3.7 05:40:46 51° N 05:40:46 51° N 05:44:04 10° N
Cosmos 1428 Rocket 4.3 05:40:08 73° ESE 05:40:22 74° E 05:46:27 10° N
Cosmos 614 Rocket 4.1 05:44:17 70° W 05:44:24 70° WNW 05:49:37 10° NNE
NOSS 3-3 (C) 3.7 05:47:35 72° NE 05:47:35 72° NE 05:52:52 10° NNE
Meteor 2-10 4.2 05:43:55 10° NNW 05:49:12 68° W 05:49:12 68° W
Cosmos 1092 Rocket 4.0 05:51:37 68° E 05:51:37 68° E 05:57:40 10° NNE
BREEZE-M DEB (TANK) 3.4 05:52:43 57° NE 05:52:43 57° NE 06:00:29 10° NE
ISS -0.9 05:50:18 10° NW 05:51:08 17° NW 05:51:08 17° NW
Cosmos 1833 Rocket 3.9 06:03:36 31° NE 06:03:36 31° NE 06:06:40 10° NNE
Cosmos 2195 Rocket 4.3 06:01:40 80° W 06:01:46 81° W 06:07:54 10° N
Lacrosse 4 Rocket 3.6 06:00:17 10° N 06:02:01 19° NNE 06:02:01 19° NNE
Cosmos 1656 4.4 06:21:00 10° NNW 06:25:08 46° NNE 06:25:08 46° NNE
CZ-3 Stage 3 3.6 06:14:38 10° WSW 06:46:14 70° S 06:47:18 66° SE
Cosmos 1697 Rocket 3.8 07:00:08 10° N 07:03:59 38° NNE 07:03:59 38° NNE
USA 59 Rocket 2.3 07:03:56 10° NW 07:05:51 25° NW 07:05:51 25° NW
Cosmos 1980 Rocket 3.9 07:09:16 10° N 07:13:15 25° NE 07:13:15 25° NE
USA 267 3.8 07:07:47 10° NE 07:12:17 47° NE 07:12:17 47° NE
Cosmos 2082 Rocket 3.3 07:52:08 41° N 07:52:08 41° N 07:55:52 10° NNE
Lacrosse 5 rocket 4.2 08:24:25 10° N 08:25:54 14° NNE 08:25:54 14° NNE
SJ 16-02 3.9 08:41:02 15° NE 08:41:02 15° NE 08:42:07 10° NE
Cosmos 2322 Rocket 4.3 08:41:57 10° N 08:46:12 21° ENE 08:48:33 17° E
ATLAS CENTAUR R/B 4.4 08:41:22 10° NW 08:52:15 49° W 08:52:15 49° W
Cosmos 1980 Rocket 4.0 08:52:48 10° NW 08:55:00 22° NW 08:55:00 22° NW
DELTA 2 R/B (1) 4.4 09:01:48 48° NNE 09:01:48 48° NNE 09:06:50 10° E
Cosmos 1745 Rocket 4.1 09:02:27 69° N 09:02:27 69° N 09:07:54 10° N
MSX 4.4 09:10:55 10° NNE 09:16:07 48° E 09:16:07 48° E
CZ-2D R/B 2.9 09:18:26 10° NNE 09:23:18 46° E 09:23:18 46° E
BREEZE-M DEB (TANK) 4.3 09:22:52 19° NW 09:26:05 82° NE 09:43:17 10° SE
Resurs 1-4 Rocket 2.7 09:22:15 10° NNE 09:26:52 51° ENE 09:26:52 51° ENE
USA 234 3.7 09:21:55 10° ESE 09:28:18 58° NE 09:34:43 10° NW
Nadezhda 1 Rocket 4.1 09:23:30 10° NNW 09:29:14 63° WNW 09:29:14 63° WNW
SL-16 R/B 2.4 09:27:36 10° NNW 09:32:27 67° NNW 09:32:27 67° NNW
Cosmos 2219 Rocket 4.4 09:34:52 10° N 09:39:16 23° ENE 09:43:38 10° ESE
SL-4 R/B 3.5 09:45:47 35° N 09:45:47 35° N 09:48:56 10° NE
ALOS 3.9 09:44:56 10° NE 09:48:43 25° E 09:49:18 24° ESE
Cosmos 2360 Rocket 2.7 09:45:03 10° NNW 09:50:38 58° ENE 09:52:40 37° SE
RESURS DK-1 3.8 09:48:24 10° N 09:52:06 33° ENE 09:52:31 32° ENE
FENGYUN 3A 3.8 09:53:33 10° NNE 09:58:52 61° ESE 09:59:31 57° SE
CZ-2C R/B 2.6 09:58:41 63° SE 09:59:21 72° ENE 10:04:30 10° N
Cosmos 2221 Rocket 4.4 10:02:13 45° ESE 10:02:30 45° E 10:06:49 10° NNE
Cosmos 1825 3.9 10:04:01 25° ENE 10:04:01 25° ENE 10:06:22 10° NNE
IDEFIX/ARIANE 42P 3.0 09:59:45 10° N 10:04:34 47° WNW 10:04:34 47° WNW
ADEOS II 2.0 10:00:30 10° NNE 10:05:45 78° ESE 10:06:15 71° SSE
Meteor 1-24 Rocket 3.7 10:05:10 68° SW 10:05:52 77° W 10:11:53 10° N
OAO 3 Rocket 4.1 10:09:00 37° ESE 10:09:00 37° ESE 10:12:01 10° ESE
Cosmos 1674 Rocket 3.9 10:07:24 57° E 10:07:27 57° E 10:11:49 10° NNE
SJ 16-02 3.1 10:17:47 20° NW 10:17:47 20° NW 10:20:15 10° NNW
ATLAS 2AS CENTAUR R/B 3.8 10:12:08 10° NNW 10:18:29 41° NE 10:24:38 10° ESE
NPP 4.5 10:17:27 10° N 10:22:15 34° WNW 10:22:31 34° WNW
Cosmos 1378 Rocket 3.5 10:22:38 71° NW 10:22:38 71° NW 10:26:39 10° N
Cosmos 2181 Rocket 3.9 10:17:11 10° N 10:23:30 79° W 10:25:36 44° S
Delta 2 Rocket 4.3 10:23:38 43° S 10:23:42 43° S 10:29:21 10° ESE
SAR-Lupe-4 4.1 10:21:06 10° NNE 10:24:19 54° E 10:24:19 54° E
Okean 2 Rocket 3.6 10:20:27 10° N 10:24:47 55° E 10:26:13 37° SE
SL-16 R/B 2.9 10:20:21 13° SSE 10:25:57 64° ENE 10:32:08 10° N
ATLAS CENTAUR R/B 1.6 10:26:52 53° NNE 10:26:52 53° NNE 10:29:38 10° NNE
Cosmos 2322 Rocket 2.5 10:25:03 10° NW 10:30:16 45° W 10:30:16 45° W
Cosmos 1892 2.8 10:31:25 61° N 10:31:25 61° N 10:34:21 10° N
IRAS Rocket 4.2 10:26:25 10° NNE 10:31:55 78° ESE 10:33:52 42° S
Cosmos 2297 Rocket 3.7 10:28:39 17° SSE 10:31:59 30° ESE 10:36:50 10° NE
Cosmos 2333 Rocket 2.2 10:30:01 10° NNW 10:35:41 63° WSW 10:37:38 40° S
CZ-2C R/B 3.6 10:30:29 10° N 10:35:59 48° WNW 10:37:12 41° WSW
Tiangong -0.2 10:41:09 23° NNW 10:41:31 24° NNW 10:44:06 10° NE
Okean 1 Rocket 3.7 10:37:57 10° N 10:42:10 52° E 10:45:03 19° SSE
Cosmos 1295 Rocket 4.4 10:40:53 39° SSW 10:43:13 69° W 10:49:17 10° N
AQUA 4.1 10:41:47 10° N 10:46:18 47° WNW 10:47:07 42° WSW
DELTA 2 R/B (1) 3.4 10:42:35 10° WNW 10:48:06 79° SSW 10:53:39 10° ESE
CZ-2C R/B 3.8 10:44:20 10° NE 10:48:27 31° E 10:52:13 11° SSE
SAR-Lupe-1 4.0 10:46:16 10° N 10:49:48 65° WNW 10:49:55 64° W
Cosmos 1610 Rocket 4.4 10:50:55 27° S 10:54:32 81° W 11:00:55 10° N
CZ-2D R/B 3.7 10:59:29 10° NNW 11:03:13 19° WNW 11:04:36 18° W
Resurs 1-4 Rocket 3.8 11:03:36 10° NNW 11:06:41 16° WNW 11:07:56 15° W
Cosmos 1354 Rocket 4.1 11:05:44 22° S 11:09:11 78° ESE 11:14:30 10° NNE
CZ-4 R/B 3.8 11:04:36 10° NNE 11:09:22 85° ESE 11:12:39 21° S
Cosmos 839 Rocket 4.1 11:03:18 10° NW 11:09:38 52° WSW 11:15:32 10° S
Cosmos 1777 Rocket 4.0 11:07:24 24° SSW 11:10:37 89° ESE 11:15:56 10° NNE
Cosmos 1975 Rocket 3.6 11:07:21 14° S 11:10:52 55° E 11:15:04 10° NNE
Cosmos 371 Rocket 3.4 11:09:07 32° SW 11:11:07 55° WNW 11:15:49 10° N
USA 234 3.8 11:05:39 10° S 11:11:24 33° SW 11:17:11 10° WNW
Cosmos 304 Rocket 3.8 11:11:48 29° SW 11:14:07 64° WNW 11:18:50 10° N
Cosmos 158 Rocket 3.9 11:10:09 10° NNW 11:15:32 80° WSW 11:20:48 10° SSE
Cosmos 1025 Rocket 3.3 11:19:39 27° SW 11:21:43 48° W 11:25:58 10° N
Cosmos 1570 Rocket 4.4 11:16:46 10° NNW 11:21:47 43° WSW 11:26:23 12° S
Cosmos 2322 3.6 11:16:52 10° NNW 11:22:35 81° WSW 11:28:13 10° SSE
Cosmos 2218 Rocket 4.5 11:16:55 10° S 11:23:11 63° E 11:29:25 10° NNE
Cosmos 2219 Rocket 2.5 11:18:01 10° NW 11:23:19 42° WSW 11:28:36 10° S
NOAA 11 4.2 11:17:53 10° N 11:23:24 82° WNW 11:28:11 14° SSW
ALOS 3.5 11:21:59 10° NNW 11:25:47 26° WNW 11:27:37 20° WSW
ATLAS 2A CENTAUR R/B 2.5 11:26:45 18° S 11:26:45 18° S 11:27:50 10° SE
Cosmos 405 Rocket 3.7 11:23:10 10° NW 11:26:10 24° W 11:26:31 24° WSW
Cosmos 2208 Rocket 4.2 11:24:21 10° NNW 11:29:22 49° WSW 11:34:20 10° S
YAOGAN 6 2.3 11:26:07 10° NNE 11:29:25 82° ESE 11:31:53 16° S
RESURS DK-1 4.4 11:27:12 10° WNW 11:28:02 12° W 11:28:02 12° W
Envisat 3.1 11:24:42 10° N 11:29:41 58° WNW 11:33:33 16° SSW
Atlas Centaur 2 1.7 11:30:56 22° SW 11:33:12 44° S 11:36:47 10° E
Cosmos 2360 Rocket 3.7 11:30:54 10° WNW 11:34:01 15° W 11:34:19 15° WSW
UNK 4.2 11:30:40 14° SSW 11:34:16 39° W 11:38:37 10° NNW
GENESIS II 4.2 11:33:09 17° SSW 11:35:47 68° ESE 11:39:26 10° NE
Cosmos 1825 4.2 11:37:34 11° WNW 11:37:43 11° WNW 11:38:40 10° WNW
Cosmos 773 Rocket 3.9 11:33:58 10° NNW 11:39:06 89° ENE 11:44:14 10° SSE
Cosmos 1455 Rocket 3.0 11:35:44 10° N 11:40:07 81° W 11:44:32 10° S
IRS-1D 3.6 11:35:13 10° NNE 11:40:33 85° WNW 11:45:46 10° SSW
ASTEX 1 3.4 11:37:05 10° S 11:41:58 64° W 11:46:50 10° NNW
CZ-4C R/B 1.6 11:38:51 16° SSW 11:42:09 89° ESE 11:47:06 10° NNE
ADEOS II 4.1 11:43:20 10° NW 11:44:38 11° WNW 11:45:57 10° WNW
COSMOS 2428 2.7 11:40:08 10° NNW 11:45:44 64° WSW 11:51:20 10° S
In-Cosmos 22 Rocket 4.2 11:41:33 10° SSW 11:46:59 68° W 11:52:35 10° N
Cosmos 864 Rocket 4.5 11:42:43 10° S 11:48:56 77° W 11:55:15 10° N
OAO 3 Rocket 4.3 11:46:42 12° W 11:50:06 24° SSW 11:54:01 10° SSE
Cosmos 2237 Rocket 3.2 11:46:13 10° N 11:51:44 52° ENE 11:57:13 10° SE
COSMOS 2455 3.2 11:46:46 14° SW 11:51:49 50° WNW 11:57:40 10° NNE
Cosmos 2227 Rocket 2.3 11:47:05 10° SSW 11:52:44 82° ESE 11:58:25 10° NNE
Cosmos 990 Rocket 4.1 11:47:51 10° SSW 11:53:00 81° ESE 11:58:10 10° NNE
